Romorantin, France

4:15 PM CET on February 08, 2016 (GMT +0100)
Pruniers Air Base

Weather History for LFYR - April, 2013

Change the Weather History Date:

Tuesday, April 2, 2013

  Actual Average (LFOT) Record (LFOT)
Temperature  
Mean Temperature 42 °F -  
Max Temperature 51 °F 57 °F 73 °F (2001)
Min Temperature 32 °F 42 °F 33 °F (2013)
Degree Days  
Heating Degree Days 24    
Moisture  
Dew Point 26 °F    
Average Humidity 55    
Maximum Humidity 87    
Minimum Humidity 30    
Precipitation  
Precipitation 0.00 in - - ()
Sea Level Pressure  
Sea Level Pressure 29.67 in    
Wind  
Wind Speed 5 mph ()    
Max Wind Speed 10 mph    
Max Gust Speed -    
Averages and records for this station are not official NWS values.
T = Trace of Precipitation, MM = Missing Value Source: Averaged Metar Reports

Daily Weather History Graph

Daily Weather History Graph

Search for Another Location

Airport or City:

Trip Planner

Search our weather history database for the weather conditions in past years. The results will help you decide how hot, cold, wet, or windy it might be!

Date:

Astronomy

Apr. 02, 2013 Rise Set
Actual Time 7:30 AM CEST 8:24 PM CEST
Civil Twilight 6:59 AM CEST 8:55 PM CEST
Nautical Twilight 6:21 AM CEST 9:32 PM CEST
Astronomical Twilight 5:42 AM CEST 10:12 PM CEST
Moon 2:32 AM CEST (4/2) 11:47 AM CEST (4/2)
Length of Visible Light 13h 56m
Length of Day
12h 54m
Waning Gibbous, 59% of the Moon is Illuminated
Apr 2
Waning Gibbous
Apr 3
Last Quarter
Apr 10
New
Apr 18
First Quarter
Apr 25
Full

Hourly Weather History & Observations

Time (CEST) Temp. Windchill Dew Point Humidity Pressure Visibility Wind Dir Wind Speed Gust Speed Precip Events Conditions
12:00 AM 41.0 °F 38.0 °F 28.4 °F 61% 29.59 in - NE 4.6 mph - N/A   Unknown
1:00 AM 39.2 °F 34.2 °F 26.6 °F 61% 29.59 in - NNE 6.9 mph - N/A   Unknown
2:00 AM 39.2 °F 35.0 °F 26.6 °F 61% 29.59 in - NE 5.8 mph - N/A   Unknown
3:00 AM 37.4 °F 33.8 °F 26.6 °F 65% 29.59 in - NNE 4.6 mph - N/A   Unknown
4:00 AM 37.4 °F 33.8 °F 26.6 °F 65% 29.59 in - NE 4.6 mph - N/A   Unknown
5:00 AM 35.6 °F 32.8 °F 26.6 °F 70% 29.59 in - NNE 3.5 mph - N/A   Unknown
6:00 AM 33.8 °F 30.8 °F 24.8 °F 70% 29.59 in - Variable 3.5 mph - N/A   Clear
7:00 AM 32.0 °F 28.7 °F 24.8 °F 75% 29.62 in - NNE 3.5 mph - N/A   Clear
8:00 AM 32.0 °F 27.5 °F 24.8 °F 75% 29.62 in - NNE 4.6 mph - N/A   Clear
9:00 AM 33.8 °F 28.6 °F 24.8 °F 70% 29.65 in - NNE 5.8 mph - N/A   Clear
10:00 AM 39.2 °F 33.6 °F 26.6 °F 61% 29.65 in - NNE 8.1 mph - N/A   Clear
11:00 AM 42.8 °F 38.0 °F 26.6 °F 53% 29.65 in - NE 8.1 mph - N/A   Clear
1:00 PM 50.0 °F - 28.4 °F 43% 29.68 in - NNE 10.4 mph - N/A   Clear
2:00 PM 51.8 °F - 26.6 °F 38% 29.68 in - Variable 8.1 mph - N/A   Clear
3:07 PM 51.8 °F - 26.6 °F 38% 29.68 in - North 8.1 mph - N/A   Clear
4:00 PM 51.8 °F - 24.8 °F 35% 29.68 in - NE 8.1 mph - N/A   Clear
5:00 PM 51.8 °F - 21.2 °F 30% 29.71 in - North 8.1 mph - N/A   Clear
6:00 PM 51.8 °F - 23.0 °F 33% 29.71 in - NNE 6.9 mph - N/A   Clear
7:00 PM 51.8 °F - 23.0 °F 33% 29.74 in - NE 5.8 mph - N/A   Unknown
8:00 PM 48.2 °F - 23.0 °F 37% 29.77 in - NNE 5.8 mph - N/A   Unknown
9:00 PM 46.4 °F - 24.8 °F 43% 29.77 in - Variable 2.3 mph - N/A   Unknown
10:00 PM 37.4 °F - 28.4 °F 70% 29.80 in - Calm Calm - N/A   Unknown
11:00 PM 32.0 °F - 28.4 °F 87% 29.80 in - Calm Calm - N/A   Unknown